Regional Weather Roundup
Issued by NWS Northern Indiana

Home | Current Version | Previous Version | Graphics & Text | Print | Product List | Glossary On
Versions: 1 2 3 4 5 6 7 8 9 10 11 12 13 14 15 16 17 18 19 20 21 22 23 24 25 26 27 28 29 30 31 32 33 34 35 36 37 38 39 40 41 42 43 44 45 46 47 48 49 50
000
ASUS43 KIWX 021310
RWRIWX

KIWX WEATHER ROUNDUP
NATIONAL WEATHER SERVICE NORTHERN INDIANA
900 AM EDT SUN AUG 02 2015

NOTE: "FAIR" INDICATES FEW OR NO CLOUDS BELOW 12,000 FEET WITH NO
SIGNIFICANT WEATHER AND/OR OBSTRUCTIONS TO VISIBILITY.

* THESE STATIONS ARE NOT UNDER NWS QUALITY CONTROL. THEY ALSO MAY NOT
  REPORT WEATHER SUCH AS PRECIPITATION OR FOG.

INZ001>027-021400-
NORTHERN INDIANA

CITY           SKY/WX    TMP DP  RH WIND       PRES   REMARKS
GARY*          MOSUNNY   75  68  78 SW8       29.88S
VALPARAISO     SUNNY     71  65  81 SW7       29.91S
MICHIGAN CITY* MOSUNNY   72  64  78 S7        29.89S
LAPORTE*       MOSUNNY   72  69  89 SW7       29.91S
KNOX*          SUNNY     70  63  78 SW6       29.91R
SOUTH BEND     MOSUNNY   73  65  75 SW10      29.90F
ELKHART*       SUNNY     73  66  78 SW9       29.91S
GOSHEN         SUNNY     71  65  81 SW10      29.91F
MONTICELLO*    SUNNY     70  65  84 SW9       29.92F
LOGANSPORT*    SUNNY     70  59  68 SW10      29.94F
ROCHESTER*     SUNNY     73  64  73 SW7       29.94R
WARSAW*        SUNNY     72  63  73 W7        29.93S
ANGOLA*        SUNNY     75  66  73 SW5       29.92S
FORT WAYNE     MOSUNNY   71  63  75 W8        29.95R
HUNTINGTON*    SUNNY     71  63  75 SW6       29.95R
PERU/GRISSOM   SUNNY     72  62  71 SW13      29.93F
MARION*        SUNNY     69  61  75 SW7       29.97S

$$
INZ028>050-021400-
CENTRAL INDIANA

CITY           SKY/WX    TMP DP  RH WIND       PRES   REMARKS
LAFAYETTE      SUNNY     70  63  78 SW3       29.94S
KOKOMO*        SUNNY     73  61  64 SW10      29.96S
MUNCIE*        SUNNY     71  59  65 SW8       29.97S
INDIANAPOLIS   MOSUNNY   71  60  68 SW7       29.96R

$$
MIZ043>046-050>051-056>058-064>065-071>073-077>080-021400-
SOUTHWEST LOWER MICHIGAN

CITY           SKY/WX    TMP DP  RH WIND       PRES   REMARKS
BATTLE CREEK   MOSUNNY   72  65  78 S8        29.88F
BENTON HARBOR  MOSUNNY   75  68  78 SW8       29.86F
COLDWATER*     SUNNY     70  64  81 SW7       29.91S
HILLSDALE*     MOSUNNY   72  67  84 W6        29.92S
HOLLAND        MOSUNNY   76  69  79 SW12      29.83F
GRAND RAPIDS   PTSUNNY   74  67  78 S13       29.83F
KALAMAZOO      SUNNY     72  65  78 SW7       29.88F
STURGIS*       SUNNY     70  66  88 SW6       29.90F
THREE RIVERS*  FAIR      71  65  83 SW7       29.90S

$$
OHZ001>008-015>018-024>025-021400-
NORTHWEST OHIO

CITY           SKY/WX    TMP DP  RH WIND       PRES   REMARKS
WAUSEON*       FAIR      70  66  88 W8        29.92S
DEFIANCE       SUNNY     73  64  73 VRB3      29.93R
FINDLAY        PTSUNNY   74  62  66 W10       29.94R
TOLEDO EXPRESS MOSUNNY   71  63  75 W13       29.91S
TOLEDO METCALF MOSUNNY   73  62  68 SW8       29.92S
LIMA           SUNNY     72  61  68 SW10      29.96S

$$
AND FOR LAKE MICHIGAN COASTAL AND OPEN LAKE BUOY OBSERVATIONS

STATION/POSITION TEMP    WIND        PRES    VSBY  WAVE
                 AIR SEA DIR/SP/G                  HT/PER
                 (F)     (DEG/KT/KT) (MB)    (MI)  (FT/S)
CALUMET HARBOR    71     200/  7/ 10   N/A
MICHIGAN CITY     71     180/ 11/ 13   N/A
BURNS HARBOR      73     210/  9/ 17 1012.2F
SAINT JOSEPH      74     180/ 15/ 20 1011.9F
4 MI NW BRIDGMAN  73 73  240/ 16/ 17   N/A           3/ 4
MICHIGAN CITY     73 73  220/ 12/ 16   N/A           2/ 3

$$
&&



USA.gov is the U.S. government's official web portal to all federal, state and local government web resources and services.